Time,TemperatureF,DewpointF,PressureIn,WindDirection,WindDirectionDegrees,WindSpeedMPH,WindSpeedGustMPH,Humidity,HourlyPrecipIn,Conditions,Clouds,dailyrainin,SoftwareType,DateUTC
2013-02-23 00:00:00,33.3,31.6,29.06,SW,225,4.0,6.0,94,0.00,,,0.00,meteohub,2013-02-23 05:00:00,
2013-02-23 00:05:00,33.3,31.6,29.06,SSW,202,4.0,6.0,94,0.00,,,0.00,meteohub,2013-02-23 05:05:00,
2013-02-23 00:10:00,33.3,31.5,29.06,WSW,248,4.0,6.0,93,0.00,,,0.00,meteohub,2013-02-23 05:10:00,
2013-02-23 00:15:00,33.3,31.3,29.06,West,270,3.0,6.0,92,0.00,,,0.00,meteohub,2013-02-23 05:15:00,
2013-02-23 00:20:00,33.1,31.1,29.06,NW,315,5.0,5.0,92,0.00,,,0.00,meteohub,2013-02-23 05:20:00,
2013-02-23 00:25:00,33.1,30.7,29.06,South,180,3.0,5.0,91,0.00,,,0.00,meteohub,2013-02-23 05:25:00,
2013-02-23 00:30:00,33.1,30.7,29.06,SSW,202,2.0,5.0,91,0.00,,,0.00,meteohub,2013-02-23 05:30:00,
2013-02-23 00:35:00,33.1,30.6,29.06,SW,225,4.0,6.0,90,0.00,,,0.00,meteohub,2013-02-23 05:35:00,
2013-02-23 00:40:00,33.1,30.6,29.06,SW,225,2.0,6.0,90,0.00,,,0.00,meteohub,2013-02-23 05:40:00,
2013-02-23 00:45:00,33.1,30.2,29.06,SSE,158,4.0,6.0,89,0.00,,,0.00,meteohub,2013-02-23 05:45:00,
2013-02-23 00:50:00,33.1,30.2,29.06,West,270,3.0,5.0,89,0.00,,,0.00,meteohub,2013-02-23 05:50:00,
2013-02-23 00:55:00,32.9,30.0,29.06,SE,135,4.0,6.0,89,0.00,,,0.00,meteohub,2013-02-23 05:55:00,
2013-02-23 01:00:00,32.9,30.0,29.06,SSW,202,4.0,6.0,89,0.00,,,0.00,meteohub,2013-02-23 06:00:00,
2013-02-23 01:05:00,32.9,30.0,29.06,WSW,248,2.0,5.0,89,0.00,,,0.00,meteohub,2013-02-23 06:05:00,
2013-02-23 01:10:00,32.9,30.0,29.06,SSW,202,3.0,5.0,89,0.00,,,0.00,meteohub,2013-02-23 06:10:00,
2013-02-23 01:15:00,32.9,30.0,29.06,SW,225,1.0,5.0,89,0.00,,,0.00,meteohub,2013-02-23 06:15:00,
2013-02-23 01:20:00,32.7,29.8,29.06,SW,225,6.0,6.0,89,0.00,,,0.00,meteohub,2013-02-23 06:20:00,
2013-02-23 01:25:00,32.7,29.7,29.06,West,270,3.0,6.0,88,0.00,,,0.00,meteohub,2013-02-23 06:25:00,
2013-02-23 01:30:00,32.7,29.7,29.06,SE,135,1.0,6.0,88,0.00,,,0.00,meteohub,2013-02-23 06:30:00,
2013-02-23 01:36:00,32.7,29.7,29.06,South,180,2.0,6.0,88,0.00,,,0.00,meteohub,2013-02-23 06:36:00,
2013-02-23 01:41:00,32.7,29.7,29.06,West,270,3.0,4.0,88,0.00,,,0.00,meteohub,2013-02-23 06:41:00,
2013-02-23 01:46:00,32.7,29.7,29.06,SSW,202,4.0,4.0,88,0.00,,,0.00,meteohub,2013-02-23 06:46:00,
2013-02-23 01:51:00,32.7,29.7,29.06,WSW,248,3.0,4.0,88,0.00,,,0.00,meteohub,2013-02-23 06:51:00,
2013-02-23 01:56:00,32.7,29.3,29.03,SW,225,2.0,4.0,87,0.00,,,0.00,meteohub,2013-02-23 06:56:00,
2013-02-23 02:01:00,32.7,29.3,29.03,SSW,202,4.0,4.0,87,0.00,,,0.00,meteohub,2013-02-23 07:01:00,
2013-02-23 02:06:00,32.7,29.3,29.03,SSW,202,2.0,5.0,87,0.00,,,0.00,meteohub,2013-02-23 07:06:00,
2013-02-23 02:11:00,32.7,29.3,29.06,SW,225,3.0,5.0,87,0.00,,,0.00,meteohub,2013-02-23 07:11:00,
2013-02-23 02:16:00,32.7,29.3,29.06,SW,225,3.0,4.0,87,0.00,,,0.00,meteohub,2013-02-23 07:16:00,
2013-02-23 02:21:00,32.7,29.3,29.06,WSW,248,1.0,4.0,87,0.00,,,0.00,meteohub,2013-02-23 07:21:00,
2013-02-23 02:26:00,32.7,29.3,29.03,West,270,2.0,4.0,87,0.00,,,0.00,meteohub,2013-02-23 07:26:00,
2013-02-23 02:31:00,32.5,28.8,29.03,SW,225,2.0,4.0,86,0.00,,,0.00,meteohub,2013-02-23 07:31:00,
2013-02-23 02:36:00,32.5,28.8,29.03,SW,225,3.0,4.0,86,0.00,,,0.00,meteohub,2013-02-23 07:36:00,
2013-02-23 02:41:00,32.5,28.8,29.06,SW,225,2.0,3.0,86,0.00,,,0.00,meteohub,2013-02-23 07:41:00,
2013-02-23 02:46:00,32.5,28.8,29.06,WSW,248,4.0,4.0,86,0.00,,,0.00,meteohub,2013-02-23 07:46:00,
2013-02-23 02:51:00,32.5,28.8,29.06,South,180,3.0,4.0,86,0.00,,,0.00,meteohub,2013-02-23 07:51:00,
2013-02-23 02:56:00,32.5,28.6,29.03,SW,225,2.0,4.0,85,0.00,,,0.00,meteohub,2013-02-23 07:56:00,
2013-02-23 03:01:00,32.5,28.6,29.03,SW,225,2.0,4.0,85,0.00,,,0.00,meteohub,2013-02-23 08:01:00,
2013-02-23 03:06:00,32.5,28.6,29.03,SW,225,1.0,4.0,85,0.00,,,0.00,meteohub,2013-02-23 08:06:00,
2013-02-23 03:11:00,32.5,28.6,29.03,SW,225,1.0,4.0,85,0.00,,,0.00,meteohub,2013-02-23 08:11:00,
2013-02-23 03:16:00,32.5,28.6,29.03,SW,225,2.0,3.0,85,0.00,,,0.00,meteohub,2013-02-23 08:16:00,
2013-02-23 03:21:00,32.5,28.6,29.03,SW,225,1.0,4.0,85,0.00,,,0.00,meteohub,2013-02-23 08:21:00,
2013-02-23 03:26:00,32.4,28.4,29.03,SSW,202,3.0,4.0,85,0.00,,,0.00,meteohub,2013-02-23 08:26:00,
2013-02-23 03:31:00,32.4,28.4,29.03,SW,225,1.0,4.0,85,0.00,,,0.00,meteohub,2013-02-23 08:31:00,
2013-02-23 03:36:00,32.4,27.9,29.03,WSW,248,3.0,4.0,83,0.00,,,0.00,meteohub,2013-02-23 08:36:00,
2013-02-23 03:41:00,32.4,27.5,29.03,SW,225,2.0,4.0,82,0.00,,,0.00,meteohub,2013-02-23 08:41:00,
2013-02-23 03:46:00,32.4,27.1,29.03,SW,225,3.0,4.0,81,0.00,,,0.00,meteohub,2013-02-23 08:46:00,
2013-02-23 03:51:00,32.2,26.4,29.03,WSW,248,3.0,4.0,79,0.00,,,0.00,meteohub,2013-02-23 08:51:00,
2013-02-23 03:56:00,32.2,25.2,29.03,NW,315,4.0,5.0,75,0.00,,,0.00,meteohub,2013-02-23 08:56:00,
2013-02-23 04:01:00,32.4,25.0,29.03,SSW,202,3.0,5.0,74,0.00,,,0.00,meteohub,2013-02-23 09:01:00,
2013-02-23 04:06:00,32.2,24.4,29.03,WSW,248,2.0,5.0,73,0.00,,,0.00,meteohub,2013-02-23 09:06:00,
2013-02-23 04:11:00,32.2,24.4,29.03,SSW,202,4.0,6.0,73,0.00,,,0.00,meteohub,2013-02-23 09:11:00,
2013-02-23 04:16:00,32.2,23.5,29.03,SW,225,3.0,6.0,70,0.00,,,0.00,meteohub,2013-02-23 09:16:00,
2013-02-23 04:21:00,32.2,23.5,29.03,SW,225,2.0,6.0,70,0.00,,,0.00,meteohub,2013-02-23 09:21:00,
2013-02-23 04:26:00,32.2,22.8,29.03,SW,225,3.0,6.0,68,0.00,,,0.00,meteohub,2013-02-23 09:26:00,
2013-02-23 04:31:00,32.2,22.8,29.03,SSW,202,6.0,6.0,68,0.00,,,0.00,meteohub,2013-02-23 09:31:00,
2013-02-23 04:36:00,32.2,22.5,29.03,NW,315,3.0,6.0,67,0.00,,,0.00,meteohub,2013-02-23 09:36:00,
2013-02-23 04:41:00,32.2,22.5,29.03,SW,225,3.0,6.0,67,0.00,,,0.00,meteohub,2013-02-23 09:41:00,
2013-02-23 04:46:00,32.0,21.9,29.03,West,270,3.0,8.0,66,0.00,,,0.00,meteohub,2013-02-23 09:46:00,
2013-02-23 04:51:00,31.8,21.7,29.03,WSW,248,6.0,8.0,66,0.00,,,0.00,meteohub,2013-02-23 09:51:00,
2013-02-23 04:56:00,31.8,21.7,29.03,West,270,4.0,9.0,66,0.00,,,0.00,meteohub,2013-02-23 09:56:00,
2013-02-23 05:01:00,31.6,21.6,29.03,SW,225,3.0,9.0,66,0.00,,,0.00,meteohub,2013-02-23 10:01:00,
2013-02-23 05:06:00,31.5,20.3,29.03,SW,225,5.0,9.0,63,0.00,,,0.00,meteohub,2013-02-23 10:06:00,
2013-02-23 05:11:00,31.5,20.3,29.03,SW,225,6.0,7.0,63,0.00,,,0.00,meteohub,2013-02-23 10:11:00,
2013-02-23 05:16:00,31.3,19.4,29.03,West,270,5.0,10.0,61,0.00,,,0.00,meteohub,2013-02-23 10:16:00,
2013-02-23 05:21:00,31.1,19.9,29.03,WSW,248,5.0,10.0,63,0.00,,,0.00,meteohub,2013-02-23 10:21:00,
2013-02-23 05:26:00,31.1,20.3,29.06,WSW,248,4.0,10.0,64,0.00,,,0.00,meteohub,2013-02-23 10:26:00,
2013-02-23 05:31:00,30.9,19.8,29.06,West,270,8.0,10.0,63,0.00,,,0.00,meteohub,2013-02-23 10:31:00,
2013-02-23 05:36:00,30.7,18.9,29.06,WSW,248,11.0,11.0,61,0.00,,,0.00,meteohub,2013-02-23 10:36:00,
2013-02-23 05:41:00,30.6,18.0,29.03,SW,225,3.0,11.0,59,0.00,,,0.00,meteohub,2013-02-23 10:41:00,
2013-02-23 05:46:00,30.4,18.5,29.03,WSW,248,6.0,11.0,61,0.00,,,0.00,meteohub,2013-02-23 10:46:00,
2013-02-23 05:52:00,30.2,18.3,29.03,WSW,248,2.0,11.0,61,0.00,,,0.00,meteohub,2013-02-23 10:52:00,
2013-02-23 05:57:00,30.2,17.2,29.03,WSW,248,9.0,9.0,58,0.00,,,0.00,meteohub,2013-02-23 10:57:00,
2013-02-23 06:02:00,30.0,17.4,29.03,WSW,248,3.0,11.0,59,0.00,,,0.00,meteohub,2013-02-23 11:02:00,
2013-02-23 06:07:00,30.0,17.4,29.03,WSW,248,3.0,11.0,59,0.00,,,0.00,meteohub,2013-02-23 11:07:00,
2013-02-23 06:12:00,29.8,16.9,29.03,SW,225,2.0,11.0,58,0.00,,,0.00,meteohub,2013-02-23 11:12:00,
2013-02-23 06:17:00,29.8,16.9,29.03,West,270,4.0,6.0,58,0.00,,,0.00,meteohub,2013-02-23 11:17:00,
2013-02-23 06:22:00,29.7,16.7,29.03,WSW,248,4.0,6.0,58,0.00,,,0.00,meteohub,2013-02-23 11:22:00,
2013-02-23 06:27:00,29.7,16.3,29.03,SW,225,3.0,6.0,57,0.00,,,0.00,meteohub,2013-02-23 11:27:00,
2013-02-23 06:32:00,29.5,16.2,29.03,West,270,4.0,6.0,57,0.00,,,0.00,meteohub,2013-02-23 11:32:00,
2013-02-23 06:37:00,29.5,16.2,29.03,West,270,3.0,6.0,57,0.00,,,0.00,meteohub,2013-02-23 11:37:00,
2013-02-23 06:42:00,29.5,16.2,29.06,WSW,248,4.0,6.0,57,0.00,,,0.00,meteohub,2013-02-23 11:42:00,
2013-02-23 06:47:00,29.5,15.8,29.06,West,270,7.0,7.0,56,0.00,,,0.00,meteohub,2013-02-23 11:47:00,
2013-02-23 06:52:00,29.3,15.6,29.06,SSW,202,2.0,7.0,56,0.00,,,0.00,meteohub,2013-02-23 11:52:00,
2013-02-23 06:57:00,29.3,15.6,29.06,SSW,202,2.0,7.0,56,0.00,,,0.00,meteohub,2013-02-23 11:57:00,
2013-02-23 07:02:00,29.3,15.6,29.06,SW,225,3.0,7.0,56,0.00,,,0.00,meteohub,2013-02-23 12:02:00,
2013-02-23 07:07:00,29.3,15.6,29.06,WSW,248,4.0,4.0,56,0.00,,,0.00,meteohub,2013-02-23 12:07:00,
2013-02-23 07:12:00,29.1,15.4,29.06,WSW,248,3.0,4.0,56,0.00,,,0.00,meteohub,2013-02-23 12:12:00,
2013-02-23 07:17:00,29.1,15.4,29.06,WSW,248,3.0,4.0,56,0.00,,,0.00,meteohub,2013-02-23 12:17:00,
2013-02-23 07:29:00,29.1,15.8,29.06,WSW,248,3.0,4.0,57,0.00,,,0.00,meteohub,2013-02-23 12:29:00,
2013-02-23 07:34:00,29.1,15.8,29.06,SW,225,4.0,6.0,57,0.00,,,0.00,meteohub,2013-02-23 12:34:00,
2013-02-23 07:39:00,29.1,15.8,29.06,SW,225,4.0,6.0,57,0.00,,,0.00,meteohub,2013-02-23 12:39:00,
2013-02-23 07:44:00,29.1,15.8,29.06,SW,225,6.0,6.0,57,0.00,,,0.00,meteohub,2013-02-23 12:44:00,
2013-02-23 07:49:00,29.3,16.0,29.06,SW,225,4.0,6.0,57,0.00,,,0.00,meteohub,2013-02-23 12:49:00,
2013-02-23 07:54:00,29.3,16.3,29.06,West,270,4.0,7.0,58,0.00,,,0.00,meteohub,2013-02-23 12:54:00,
2013-02-23 07:59:00,29.3,16.3,29.06,SSW,202,2.0,9.0,58,0.00,,,0.00,meteohub,2013-02-23 12:59:00,
2013-02-23 08:04:00,29.3,16.3,29.06,WNW,292,6.0,9.0,58,0.00,,,0.00,meteohub,2013-02-23 13:04:00,
2013-02-23 08:09:00,29.5,16.5,29.06,West,270,3.0,6.0,58,0.00,,,0.00,meteohub,2013-02-23 13:09:00,
2013-02-23 08:14:00,29.5,16.5,29.06,SSW,202,4.0,6.0,58,0.00,,,0.00,meteohub,2013-02-23 13:14:00,
2013-02-23 08:19:00,29.5,15.8,29.06,West,270,6.0,6.0,56,0.00,,,0.00,meteohub,2013-02-23 13:19:00,
2013-02-23 08:24:00,29.7,16.0,29.06,South,180,4.0,9.0,56,0.00,,,0.00,meteohub,2013-02-23 13:24:00,
2013-02-23 08:29:00,29.8,16.2,29.06,SW,225,6.0,10.0,56,0.00,,,0.00,meteohub,2013-02-23 13:29:00,
2013-02-23 08:34:00,30.0,16.2,29.06,SW,225,4.0,10.0,56,0.00,,,0.00,meteohub,2013-02-23 13:34:00,
2013-02-23 08:39:00,30.2,16.3,29.06,SW,225,4.0,10.0,56,0.00,,,0.00,meteohub,2013-02-23 13:39:00,
2013-02-23 08:44:00,30.4,16.2,29.06,South,180,4.0,9.0,55,0.00,,,0.00,meteohub,2013-02-23 13:44:00,
2013-02-23 08:49:00,30.4,15.8,29.06,SW,225,4.0,9.0,54,0.00,,,0.00,meteohub,2013-02-23 13:49:00,
2013-02-23 08:54:00,30.0,15.4,29.06,SW,225,6.0,6.0,54,0.00,,,0.00,meteohub,2013-02-23 13:54:00,
2013-02-23 08:59:00,30.0,15.4,29.06,SW,225,6.0,9.0,54,0.00,,,0.00,meteohub,2013-02-23 13:59:00,
2013-02-23 09:04:00,31.1,16.3,29.06,West,270,6.0,9.0,54,0.00,,,0.00,meteohub,2013-02-23 14:04:00,
2013-02-23 09:09:00,31.6,16.5,29.06,West,270,9.0,9.0,53,0.00,,,0.00,meteohub,2013-02-23 14:09:00,
2013-02-23 09:14:00,31.1,15.6,29.06,SW,225,4.0,11.0,52,0.00,,,0.00,meteohub,2013-02-23 14:14:00,
2013-02-23 09:19:00,31.1,16.0,29.06,West,270,5.0,11.0,53,0.00,,,0.00,meteohub,2013-02-23 14:19:00,
2013-02-23 09:24:00,31.3,16.2,29.09,WNW,292,5.0,11.0,53,0.00,,,0.00,meteohub,2013-02-23 14:24:00,
2013-02-23 09:29:00,32.0,16.3,29.09,West,270,6.0,10.0,52,0.00,,,0.00,meteohub,2013-02-23 14:29:00,
2013-02-23 09:34:00,32.5,16.9,29.09,South,180,4.0,10.0,52,0.00,,,0.00,meteohub,2013-02-23 14:34:00,
2013-02-23 09:39:00,32.5,16.9,29.06,West,270,6.0,10.0,52,0.00,,,0.00,meteohub,2013-02-23 14:39:00,
2013-02-23 09:44:00,32.4,16.7,29.06,WSW,248,6.0,9.0,52,0.00,,,0.00,meteohub,2013-02-23 14:44:00,
2013-02-23 09:49:00,32.2,17.1,29.06,SW,225,5.0,9.0,53,0.00,,,0.00,meteohub,2013-02-23 14:49:00,
2013-02-23 09:54:00,32.0,16.9,29.06,West,270,5.0,9.0,53,0.00,,,0.00,meteohub,2013-02-23 14:54:00,
2013-02-23 09:59:00,31.6,16.5,29.06,WNW,292,9.0,9.0,53,0.00,,,0.00,meteohub,2013-02-23 14:59:00,
2013-02-23 10:04:00,31.8,17.1,29.06,WSW,248,4.0,9.0,54,0.00,,,0.00,meteohub,2013-02-23 15:04:00,
2013-02-23 10:09:00,32.2,17.4,29.06,SSW,202,4.0,9.0,54,0.00,,,0.00,meteohub,2013-02-23 15:09:00,
2013-02-23 10:14:00,32.5,17.8,29.06,West,270,8.0,9.0,54,0.00,,,0.00,meteohub,2013-02-23 15:14:00,
2013-02-23 10:19:00,32.4,17.6,29.06,SSW,202,6.0,7.0,54,0.00,,,0.00,meteohub,2013-02-23 15:19:00,
2013-02-23 10:24:00,32.7,18.0,29.06,NW,315,4.0,8.0,54,0.00,,,0.00,meteohub,2013-02-23 15:24:00,
2013-02-23 10:29:00,32.7,18.0,29.06,WSW,248,8.0,8.0,54,0.00,,,0.00,meteohub,2013-02-23 15:29:00,
2013-02-23 10:34:00,32.7,18.0,29.06,SSE,158,4.0,8.0,54,0.00,,,0.00,meteohub,2013-02-23 15:34:00,
2013-02-23 10:39:00,32.9,17.8,29.06,West,270,5.0,8.0,53,0.00,,,0.00,meteohub,2013-02-23 15:39:00,
2013-02-23 10:44:00,33.3,18.0,29.06,NW,315,4.0,8.0,53,0.00,,,0.00,meteohub,2013-02-23 15:44:00,
2013-02-23 10:49:00,33.6,18.3,29.06,SW,225,3.0,9.0,53,0.00,,,0.00,meteohub,2013-02-23 15:49:00,
2013-02-23 10:54:00,34.0,18.3,29.06,West,270,3.0,9.0,52,0.00,,,0.00,meteohub,2013-02-23 15:54:00,
2013-02-23 10:59:00,33.8,17.6,29.06,West,270,6.0,6.0,51,0.00,,,0.00,meteohub,2013-02-23 15:59:00,
2013-02-23 11:05:00,33.8,18.1,29.06,SW,225,3.0,8.0,52,0.00,,,0.00,meteohub,2013-02-23 16:05:00,
2013-02-23 11:10:00,33.8,18.1,29.06,WSW,248,4.0,8.0,52,0.00,,,0.00,meteohub,2013-02-23 16:10:00,
2013-02-23 11:15:00,34.2,18.0,29.06,WSW,248,4.0,9.0,51,0.00,,,0.00,meteohub,2013-02-23 16:15:00,
2013-02-23 11:20:00,34.0,17.8,29.06,West,270,4.0,9.0,51,0.00,,,0.00,meteohub,2013-02-23 16:20:00,
2013-02-23 11:25:00,34.5,18.3,29.06,SW,225,4.0,9.0,51,0.00,,,0.00,meteohub,2013-02-23 16:25:00,
2013-02-23 11:30:00,34.7,18.5,29.06,West,270,3.0,7.0,51,0.00,,,0.00,meteohub,2013-02-23 16:30:00,
2013-02-23 11:35:00,35.6,18.3,29.06,SW,225,4.0,7.0,49,0.00,,,0.00,meteohub,2013-02-23 16:35:00,
2013-02-23 11:40:00,35.4,17.8,29.06,NW,315,5.0,6.0,48,0.00,,,0.00,meteohub,2013-02-23 16:40:00,
2013-02-23 11:45:00,35.6,18.0,29.06,West,270,4.0,6.0,48,0.00,,,0.00,meteohub,2013-02-23 16:45:00,
2013-02-23 11:50:00,35.6,18.0,29.06,SW,225,6.0,6.0,48,0.00,,,0.00,meteohub,2013-02-23 16:50:00,
2013-02-23 11:55:00,36.0,17.2,29.06,South,180,4.0,8.0,46,0.00,,,0.00,meteohub,2013-02-23 16:55:00,
2013-02-23 12:00:00,36.0,17.2,29.06,SW,225,6.0,8.0,46,0.00,,,0.00,meteohub,2013-02-23 17:00:00,
2013-02-23 12:05:00,36.1,16.9,29.06,SW,225,4.0,8.0,45,0.00,,,0.00,meteohub,2013-02-23 17:05:00,
2013-02-23 12:10:00,35.4,16.2,29.06,West,270,4.0,6.0,45,0.00,,,0.00,meteohub,2013-02-23 17:10:00,
2013-02-23 12:15:00,36.0,17.2,29.06,SSW,202,2.0,8.0,46,0.00,,,0.00,meteohub,2013-02-23 17:15:00,
2013-02-23 12:20:00,36.3,17.6,29.06,SSW,202,4.0,8.0,46,0.00,,,0.00,meteohub,2013-02-23 17:20:00,
2013-02-23 12:25:00,36.5,16.7,29.06,SSW,202,4.0,8.0,44,0.00,,,0.00,meteohub,2013-02-23 17:25:00,
2013-02-23 12:30:00,35.8,15.6,29.06,West,270,8.0,8.0,43,0.00,,,0.00,meteohub,2013-02-23 17:30:00,
2013-02-23 12:35:00,35.8,15.6,29.06,WNW,292,8.0,10.0,43,0.00,,,0.00,meteohub,2013-02-23 17:35:00,
2013-02-23 12:40:00,35.6,16.0,29.03,SW,225,4.0,11.0,44,0.00,,,0.00,meteohub,2013-02-23 17:40:00,
2013-02-23 12:45:00,35.4,16.2,29.03,WSW,248,6.0,11.0,45,0.00,,,0.00,meteohub,2013-02-23 17:45:00,
2013-02-23 12:50:00,36.0,16.2,29.03,WSW,248,4.0,11.0,44,0.00,,,0.00,meteohub,2013-02-23 17:50:00,
2013-02-23 12:55:00,36.7,16.9,29.03,West,270,3.0,11.0,44,0.00,,,0.00,meteohub,2013-02-23 17:55:00,
2013-02-23 13:00:00,35.6,15.4,29.03,SSW,202,6.0,11.0,43,0.00,,,0.00,meteohub,2013-02-23 18:00:00,
2013-02-23 13:05:00,36.0,16.2,29.03,WNW,292,6.0,10.0,44,0.00,,,0.00,meteohub,2013-02-23 18:05:00,
2013-02-23 13:10:00,36.5,16.2,29.03,WSW,248,6.0,10.0,43,0.00,,,0.00,meteohub,2013-02-23 18:10:00,
2013-02-23 13:15:00,36.1,15.3,29.03,WNW,292,8.0,8.0,42,0.00,,,0.00,meteohub,2013-02-23 18:15:00,
2013-02-23 13:20:00,35.6,14.9,29.03,West,270,4.0,11.0,42,0.00,,,0.00,meteohub,2013-02-23 18:20:00,
2013-02-23 13:25:00,35.4,15.3,29.03,West,270,3.0,11.0,43,0.00,,,0.00,meteohub,2013-02-23 18:25:00,
2013-02-23 13:30:00,35.4,15.3,29.03,West,270,5.0,11.0,43,0.00,,,0.00,meteohub,2013-02-23 18:30:00,
2013-02-23 13:35:00,35.2,15.1,29.03,SW,225,4.0,9.0,43,0.00,,,0.00,meteohub,2013-02-23 18:35:00,
2013-02-23 13:40:00,34.9,14.7,29.03,WNW,292,6.0,8.0,43,0.00,,,0.00,meteohub,2013-02-23 18:40:00,
2013-02-23 13:45:00,35.1,16.0,29.03,West,270,4.0,8.0,45,0.00,,,0.00,meteohub,2013-02-23 18:45:00,
2013-02-23 13:50:00,35.1,15.4,29.03,SW,225,2.0,8.0,44,0.00,,,0.00,meteohub,2013-02-23 18:50:00,
2013-02-23 13:55:00,35.1,15.4,29.03,WNW,292,4.0,6.0,44,0.00,,,0.00,meteohub,2013-02-23 18:55:00,
2013-02-23 14:00:00,34.5,15.4,29.03,SW,225,2.0,5.0,45,0.00,,,0.00,meteohub,2013-02-23 19:00:00,
2013-02-23 14:05:00,34.5,15.4,29.03,SSW,202,6.0,6.0,45,0.00,,,0.00,meteohub,2013-02-23 19:05:00,
2013-02-23 14:10:00,34.5,14.9,29.03,WSW,248,4.0,6.0,44,0.00,,,0.00,meteohub,2013-02-23 19:10:00,
2013-02-23 14:15:00,34.5,15.4,29.03,SW,225,5.0,6.0,45,0.00,,,0.00,meteohub,2013-02-23 19:15:00,
2013-02-23 14:20:00,34.5,14.9,29.03,WSW,248,2.0,6.0,44,0.00,,,0.00,meteohub,2013-02-23 19:20:00,
2013-02-23 14:25:00,34.3,14.7,29.03,SW,225,3.0,6.0,44,0.00,,,0.00,meteohub,2013-02-23 19:25:00,
2013-02-23 14:30:00,34.2,15.1,29.03,West,270,2.0,7.0,45,0.00,,,0.00,meteohub,2013-02-23 19:30:00,
2013-02-23 14:35:00,34.2,15.1,29.03,WNW,292,4.0,7.0,45,0.00,,,0.00,meteohub,2013-02-23 19:35:00,
2013-02-23 14:40:00,34.2,15.1,29.03,West,270,4.0,7.0,45,0.00,,,0.00,meteohub,2013-02-23 19:40:00,
2013-02-23 14:45:00,34.0,14.4,29.03,West,270,3.0,7.0,44,0.00,,,0.00,meteohub,2013-02-23 19:45:00,
2013-02-23 14:50:00,34.0,14.9,29.03,West,270,2.0,6.0,45,0.00,,,0.00,meteohub,2013-02-23 19:50:00,
2013-02-23 14:55:00,33.8,14.2,29.03,West,270,3.0,6.0,44,0.00,,,0.00,meteohub,2013-02-23 19:55:00,
2013-02-23 15:00:00,33.8,14.7,29.03,SSW,202,2.0,6.0,45,0.00,,,0.00,meteohub,2013-02-23 20:00:00,
2013-02-23 15:05:00,33.6,14.5,29.03,WSW,248,4.0,6.0,45,0.00,,,0.00,meteohub,2013-02-23 20:05:00,
2013-02-23 15:10:00,33.4,14.4,29.03,WSW,248,2.0,6.0,45,0.00,,,0.00,meteohub,2013-02-23 20:10:00,
2013-02-23 15:15:00,33.6,14.5,29.03,SSW,202,1.0,6.0,45,0.00,,,0.00,meteohub,2013-02-23 20:15:00,
2013-02-23 15:20:00,33.6,14.5,29.03,West,270,4.0,6.0,45,0.00,,,0.00,meteohub,2013-02-23 20:20:00,
2013-02-23 15:25:00,33.8,14.2,29.03,West,270,3.0,6.0,44,0.00,,,0.00,meteohub,2013-02-23 20:25:00,
2013-02-23 15:30:00,34.0,14.4,29.03,West,270,4.0,6.0,44,0.00,,,0.00,meteohub,2013-02-23 20:30:00,
2013-02-23 15:35:00,33.8,13.8,29.03,WSW,248,3.0,6.0,43,0.00,,,0.00,meteohub,2013-02-23 20:35:00,
2013-02-23 15:40:00,33.6,13.6,29.03,West,270,6.0,7.0,43,0.00,,,0.00,meteohub,2013-02-23 20:40:00,
2013-02-23 15:45:00,33.6,14.2,29.03,West,270,4.0,7.0,44,0.00,,,0.00,meteohub,2013-02-23 20:45:00,
2013-02-23 15:50:00,33.4,14.0,29.03,West,270,5.0,7.0,44,0.00,,,0.00,meteohub,2013-02-23 20:50:00,
2013-02-23 15:56:00,33.4,14.0,29.03,WSW,248,1.0,6.0,44,0.00,,,0.00,meteohub,2013-02-23 20:56:00,
2013-02-23 16:01:00,33.4,14.4,29.03,SW,225,3.0,5.0,45,0.00,,,0.00,meteohub,2013-02-23 21:01:00,
2013-02-23 16:06:00,33.3,13.8,29.03,West,270,4.0,6.0,44,0.00,,,0.00,meteohub,2013-02-23 21:06:00,
2013-02-23 16:11:00,33.3,14.4,29.03,SW,225,5.0,6.0,45,0.00,,,0.00,meteohub,2013-02-23 21:11:00,
2013-02-23 16:16:00,33.1,14.2,29.03,SW,225,4.0,6.0,45,0.00,,,0.00,meteohub,2013-02-23 21:16:00,
2013-02-23 16:21:00,32.9,14.0,29.03,WSW,248,4.0,9.0,45,0.00,,,0.00,meteohub,2013-02-23 21:21:00,
2013-02-23 16:26:00,32.7,14.4,29.03,West,270,3.0,9.0,46,0.00,,,0.00,meteohub,2013-02-23 21:26:00,
2013-02-23 16:31:00,32.7,14.4,29.03,WSW,248,2.0,9.0,46,0.00,,,0.00,meteohub,2013-02-23 21:31:00,
2013-02-23 16:36:00,32.5,13.6,29.03,WNW,292,3.0,6.0,45,0.00,,,0.00,meteohub,2013-02-23 21:36:00,
2013-02-23 16:41:00,32.5,14.2,29.03,WSW,248,1.0,6.0,46,0.00,,,0.00,meteohub,2013-02-23 21:41:00,
2013-02-23 16:46:00,32.5,14.2,29.03,West,270,3.0,6.0,46,0.00,,,0.00,meteohub,2013-02-23 21:46:00,
2013-02-23 16:51:00,32.4,14.9,29.03,SW,225,3.0,6.0,48,0.00,,,0.00,meteohub,2013-02-23 21:51:00,
2013-02-23 16:56:00,32.2,14.4,29.03,WNW,292,4.0,6.0,47,0.00,,,0.00,meteohub,2013-02-23 21:56:00,
2013-02-23 17:01:00,32.0,14.5,29.03,WNW,292,4.0,6.0,48,0.00,,,0.00,meteohub,2013-02-23 22:01:00,
2013-02-23 17:06:00,31.8,14.9,29.03,WNW,292,3.0,7.0,49,0.00,,,0.00,meteohub,2013-02-23 22:06:00,
2013-02-23 17:11:00,31.6,15.1,29.03,West,270,6.0,7.0,50,0.00,,,0.00,meteohub,2013-02-23 22:11:00,
2013-02-23 17:16:00,31.5,14.5,29.03,SSW,202,2.0,7.0,49,0.00,,,0.00,meteohub,2013-02-23 22:16:00,
2013-02-23 17:21:00,31.3,13.8,29.03,WSW,248,2.0,6.0,48,0.00,,,0.00,meteohub,2013-02-23 22:21:00,
2013-02-23 17:26:00,31.3,13.8,29.03,WSW,248,2.0,6.0,48,0.00,,,0.00,meteohub,2013-02-23 22:26:00,
2013-02-23 17:31:00,31.1,13.3,29.03,West,270,5.0,5.0,47,0.00,,,0.00,meteohub,2013-02-23 22:31:00,
2013-02-23 17:36:00,31.1,13.3,29.03,WSW,248,3.0,6.0,47,0.00,,,0.00,meteohub,2013-02-23 22:36:00,
2013-02-23 17:41:00,30.9,13.1,29.03,WSW,248,3.0,6.0,47,0.00,,,0.00,meteohub,2013-02-23 22:41:00,
2013-02-23 17:46:00,30.9,13.6,29.03,SW,225,3.0,6.0,48,0.00,,,0.00,meteohub,2013-02-23 22:46:00,
2013-02-23 17:51:00,30.7,13.5,29.03,WSW,248,3.0,6.0,48,0.00,,,0.00,meteohub,2013-02-23 22:51:00,
2013-02-23 17:56:00,30.7,13.5,29.03,West,270,4.0,6.0,48,0.00,,,0.00,meteohub,2013-02-23 22:56:00,
2013-02-23 18:01:00,30.6,14.2,29.03,SSW,202,3.0,6.0,50,0.00,,,0.00,meteohub,2013-02-23 23:01:00,
2013-02-23 18:06:00,30.6,14.2,29.03,West,270,4.0,6.0,50,0.00,,,0.00,meteohub,2013-02-23 23:06:00,
2013-02-23 18:11:00,30.4,14.0,29.06,West,270,3.0,6.0,50,0.00,,,0.00,meteohub,2013-02-23 23:11:00,
2013-02-23 18:16:00,30.4,14.0,29.06,WSW,248,3.0,6.0,50,0.00,,,0.00,meteohub,2013-02-23 23:16:00,
2013-02-23 18:21:00,30.4,14.0,29.06,WSW,248,3.0,8.0,50,0.00,,,0.00,meteohub,2013-02-23 23:21:00,
2013-02-23 18:26:00,30.2,14.4,29.03,West,270,3.0,8.0,51,0.00,,,0.00,meteohub,2013-02-23 23:26:00,
2013-02-23 18:31:00,30.2,14.4,29.03,SSW,202,1.0,8.0,51,0.00,,,0.00,meteohub,2013-02-23 23:31:00,
2013-02-23 18:36:00,30.2,14.4,29.03,WSW,248,4.0,6.0,51,0.00,,,0.00,meteohub,2013-02-23 23:36:00,
2013-02-23 18:41:00,30.0,14.2,29.06,SW,225,3.0,4.0,51,0.00,,,0.00,meteohub,2013-02-23 23:41:00,
2013-02-23 18:46:00,30.0,14.2,29.06,West,270,3.0,6.0,51,0.00,,,0.00,meteohub,2013-02-23 23:46:00,
2013-02-23 18:51:00,30.0,14.2,29.06,West,270,4.0,6.0,51,0.00,,,0.00,meteohub,2013-02-23 23:51:00,
2013-02-23 18:56:00,29.8,14.0,29.06,WSW,248,3.0,6.0,51,0.00,,,0.00,meteohub,2013-02-23 23:56:00,
2013-02-23 19:01:00,29.8,14.4,29.06,West,270,2.0,6.0,52,0.00,,,0.00,meteohub,2013-02-24 00:01:00,
2013-02-23 19:06:00,29.8,14.0,29.06,West,270,4.0,5.0,51,0.00,,,0.00,meteohub,2013-02-24 00:06:00,
2013-02-23 19:11:00,29.8,14.0,29.06,SW,225,0.0,8.0,51,0.00,,,0.00,meteohub,2013-02-24 00:11:00,
2013-02-23 19:16:00,29.5,14.5,29.06,WNW,292,0.0,8.0,53,0.00,,,0.00,meteohub,2013-02-24 00:16:00,
2013-02-23 19:21:00,29.5,14.5,29.06,WSW,248,5.0,8.0,53,0.00,,,0.00,meteohub,2013-02-24 00:21:00,
2013-02-23 19:26:00,29.5,14.5,29.06,West,270,5.0,6.0,53,0.00,,,0.00,meteohub,2013-02-24 00:26:00,
2013-02-23 19:31:00,29.3,14.7,29.06,West,270,9.0,9.0,54,0.00,,,0.00,meteohub,2013-02-24 00:31:00,
2013-02-23 19:36:00,29.1,15.1,29.06,WNW,292,4.0,9.0,55,0.00,,,0.00,meteohub,2013-02-24 00:36:00,
2013-02-23 19:41:00,29.1,15.1,29.06,West,270,4.0,9.0,55,0.00,,,0.00,meteohub,2013-02-24 00:41:00,
2013-02-23 19:46:00,28.9,14.4,29.06,West,270,3.0,9.0,54,0.00,,,0.00,meteohub,2013-02-24 00:46:00,
2013-02-23 19:51:00,28.9,14.4,29.06,SW,225,3.0,6.0,54,0.00,,,0.00,meteohub,2013-02-24 00:51:00,
2013-02-23 19:56:00,28.9,14.0,29.06,West,270,4.0,7.0,53,0.00,,,0.00,meteohub,2013-02-24 00:56:00,
2013-02-23 20:01:00,28.9,14.0,29.06,West,270,6.0,7.0,53,0.00,,,0.00,meteohub,2013-02-24 01:01:00,
2013-02-23 20:06:00,28.9,14.0,29.06,SW,225,2.0,7.0,53,0.00,,,0.00,meteohub,2013-02-24 01:06:00,
2013-02-23 20:11:00,28.9,14.4,29.06,SW,225,6.0,6.0,54,0.00,,,0.00,meteohub,2013-02-24 01:11:00,
2013-02-23 20:16:00,28.8,14.2,29.06,WSW,248,1.0,9.0,54,0.00,,,0.00,meteohub,2013-02-24 01:16:00,
2013-02-23 20:21:00,28.6,15.3,29.06,West,270,5.0,9.0,57,0.00,,,0.00,meteohub,2013-02-24 01:21:00,
2013-02-23 20:26:00,28.4,15.6,29.06,West,270,2.0,7.0,58,0.00,,,0.00,meteohub,2013-02-24 01:26:00,
2013-02-23 20:31:00,28.2,16.2,29.06,West,270,6.0,7.0,60,0.00,,,0.00,meteohub,2013-02-24 01:31:00,
2013-02-23 20:36:00,28.0,16.0,29.06,West,270,2.0,7.0,60,0.00,,,0.00,meteohub,2013-02-24 01:36:00,
2013-02-23 20:41:00,27.9,16.2,29.06,WNW,292,2.0,7.0,61,0.00,,,0.00,meteohub,2013-02-24 01:41:00,
2013-02-23 20:46:00,27.9,17.2,29.06,North,0,2.0,6.0,64,0.00,,,0.00,meteohub,2013-02-24 01:46:00,
2013-02-23 20:51:00,27.7,17.4,29.06,West,270,3.0,6.0,65,0.00,,,0.00,meteohub,2013-02-24 01:51:00,
2013-02-23 20:56:00,27.5,17.6,29.06,WSW,248,4.0,6.0,66,0.00,,,0.00,meteohub,2013-02-24 01:56:00,
2013-02-23 21:01:00,27.5,18.7,29.06,SW,225,3.0,6.0,69,0.00,,,0.00,meteohub,2013-02-24 02:01:00,
2013-02-23 21:06:00,27.3,18.5,29.06,WSW,248,2.0,6.0,69,0.00,,,0.00,meteohub,2013-02-24 02:06:00,
2013-02-23 21:11:00,27.3,18.5,29.06,WSW,248,2.0,6.0,69,0.00,,,0.00,meteohub,2013-02-24 02:11:00,
2013-02-23 21:16:00,27.1,18.7,29.06,WNW,292,3.0,8.0,70,0.00,,,0.00,meteohub,2013-02-24 02:16:00,
2013-02-23 21:22:00,27.0,18.1,29.06,WSW,248,1.0,8.0,69,0.00,,,0.00,meteohub,2013-02-24 02:22:00,
2013-02-23 21:27:00,27.0,18.9,29.06,WSW,248,1.0,6.0,71,0.00,,,0.00,meteohub,2013-02-24 02:27:00,
2013-02-23 21:32:00,27.0,18.9,29.06,SW,225,1.0,6.0,71,0.00,,,0.00,meteohub,2013-02-24 02:32:00,
2013-02-23 21:37:00,27.0,19.4,29.06,West,270,4.0,4.0,73,0.00,,,0.00,meteohub,2013-02-24 02:37:00,
2013-02-23 21:42:00,27.0,19.4,29.03,West,270,3.0,6.0,73,0.00,,,0.00,meteohub,2013-02-24 02:42:00,
2013-02-23 21:47:00,27.0,19.2,29.03,WNW,292,4.0,6.0,72,0.00,,,0.00,meteohub,2013-02-24 02:47:00,
2013-02-23 21:52:00,27.0,17.8,29.03,SW,225,3.0,6.0,68,0.00,,,0.00,meteohub,2013-02-24 02:52:00,
2013-02-23 21:57:00,27.0,17.1,29.06,South,180,4.0,9.0,66,0.00,,,0.00,meteohub,2013-02-24 02:57:00,
2013-02-23 22:02:00,26.8,16.3,29.06,SW,225,8.0,9.0,64,0.00,,,0.00,meteohub,2013-02-24 03:02:00,
2013-02-23 22:07:00,26.8,16.3,29.06,WSW,248,3.0,9.0,64,0.00,,,0.00,meteohub,2013-02-24 03:07:00,
2013-02-23 22:12:00,26.8,16.7,29.06,SW,225,3.0,10.0,65,0.00,,,0.00,meteohub,2013-02-24 03:12:00,
2013-02-23 22:17:00,26.8,16.9,29.06,West,270,3.0,10.0,66,0.00,,,0.00,meteohub,2013-02-24 03:17:00,
2013-02-23 22:22:00,26.6,16.9,29.06,WNW,292,6.0,7.0,66,0.00,,,0.00,meteohub,2013-02-24 03:22:00,
2013-02-23 22:27:00,26.6,17.1,29.06,West,270,3.0,6.0,67,0.00,,,0.00,meteohub,2013-02-24 03:27:00,
2013-02-23 22:32:00,26.4,17.1,29.06,West,270,2.0,6.0,67,0.00,,,0.00,meteohub,2013-02-24 03:32:00,
2013-02-23 22:37:00,26.4,17.2,29.06,West,270,2.0,6.0,68,0.00,,,0.00,meteohub,2013-02-24 03:37:00,
2013-02-23 22:42:00,26.4,17.2,29.06,West,270,2.0,5.0,68,0.00,,,0.00,meteohub,2013-02-24 03:42:00,
2013-02-23 22:47:00,26.2,17.4,29.06,West,270,4.0,4.0,69,0.00,,,0.00,meteohub,2013-02-24 03:47:00,
2013-02-23 22:52:00,26.2,17.4,29.06,SSW,202,4.0,5.0,69,0.00,,,0.00,meteohub,2013-02-24 03:52:00,
2013-02-23 22:57:00,26.2,17.4,29.06,West,270,4.0,7.0,69,0.00,,,0.00,meteohub,2013-02-24 03:57:00,
2013-02-23 23:02:00,26.2,17.4,29.06,West,270,4.0,7.0,69,0.00,,,0.00,meteohub,2013-02-24 04:02:00,
2013-02-23 23:07:00,26.2,17.4,29.06,West,270,3.0,7.0,69,0.00,,,0.00,meteohub,2013-02-24 04:07:00,
2013-02-23 23:12:00,26.2,17.4,29.06,West,270,5.0,6.0,69,0.00,,,0.00,meteohub,2013-02-24 04:12:00,
2013-02-23 23:17:00,26.2,17.4,29.06,SW,225,2.0,6.0,69,0.00,,,0.00,meteohub,2013-02-24 04:17:00,
2013-02-23 23:22:00,26.1,17.2,29.06,West,270,4.0,6.0,69,0.00,,,0.00,meteohub,2013-02-24 04:22:00,
2013-02-23 23:27:00,26.1,16.9,29.06,WSW,248,2.0,6.0,68,0.00,,,0.00,meteohub,2013-02-24 04:27:00,
2013-02-23 23:32:00,26.1,16.9,29.06,West,270,2.0,6.0,68,0.00,,,0.00,meteohub,2013-02-24 04:32:00,
2013-02-23 23:37:00,26.1,16.9,29.06,West,270,3.0,6.0,68,0.00,,,0.00,meteohub,2013-02-24 04:37:00,
2013-02-23 23:42:00,26.1,16.9,29.06,West,270,5.0,6.0,68,0.00,,,0.00,meteohub,2013-02-24 04:42:00,
2013-02-23 23:47:00,26.1,16.9,29.06,West,270,4.0,6.0,68,0.00,,,0.00,meteohub,2013-02-24 04:47:00,
2013-02-23 23:52:00,26.1,16.9,29.06,West,270,6.0,6.0,68,0.00,,,0.00,meteohub,2013-02-24 04:52:00,
2013-02-23 23:57:00,25.9,16.5,29.06,WSW,248,2.0,6.0,67,0.00,,,0.00,meteohub,2013-02-24 04:57:00,